Location: Newark
(48.9320°N, 2.2664°E)
Time: 21:39:34
(UTC+00:00)

Vanguard 2 Rocket - Visible Passes

Search period start: 25 February 2020 00:00
Search period end: 06 March 2020 00:00
Orbit: 553 x 3327 km, 32.9° (Epoch: 25 February)

Date Brightness Start Highest point End Pass type
(mag) Time Alt. Az. Time Alt. Az. Time Alt. Az.
25 Feb 9.3 19:35:53 10° SW 19:52:35 40° S 19:58:13 30° SE visible
25 Feb 9.6 21:53:08 10° WSW 22:04:01 33° SW 22:04:01 33° SW visible
26 Feb 9.7 18:34:29 10° SW 18:51:40 39° SSE 19:02:03 17° ESE visible
26 Feb 9.2 20:50:50 10° WSW 21:06:43 40° S 21:07:51 40° S visible
26 Feb 10.2 23:09:23 10° W 23:13:39 18° WSW 23:13:39 18° WSW visible
27 Feb 10.1 17:33:38 10° SW 17:50:34 36° SSE 18:04:17 10° ESE visible
27 Feb 9.3 19:48:48 10° WSW 20:06:04 43° S 20:11:40 33° SE visible
27 Feb 9.7 22:06:40 10° W 22:17:28 31° SW 22:17:28 31° SW visible
28 Feb 9.7 18:47:07 10° SW 19:05:03 43° S 19:15:27 19° ESE visible
28 Feb 9.3 21:04:12 10° WSW 21:20:06 39° SSW 21:21:15 39° S visible
28 Feb 10.3 23:23:38 10° W 23:27:03 15° WSW 23:27:03 15° WSW visible
29 Feb 10.1 17:45:59 10° SW 18:03:51 41° SSE 18:18:23 10° ESE visible
29 Feb 9.4 20:01:58 10° WSW 20:19:28 43° S 20:25:02 33° SSE visible
29 Feb 9.9 22:20:28 10° W 22:30:50 27° SW 22:30:50 27° SW visible
01 Mar 9.7 19:00:08 10° WSW 19:18:27 45° S 19:28:48 21° ESE visible
01 Mar 9.5 21:17:44 10° W 21:33:19 36° SSW 21:34:36 35° SSW visible
01 Mar 10.5 23:38:44 10° WSW 23:40:25 12° WSW 23:40:25 12° WSW visible
02 Mar 10.1 17:58:46 10° SW 18:17:08 45° S 18:32:15 10° ESE visible
02 Mar 9.5 20:15:22 10° WSW 20:32:46 42° SSW 20:38:23 33° SSE visible
02 Mar 10.1 22:34:38 10° W 22:44:11 23° SW 22:44:11 23° SW visible
03 Mar 9.8 19:13:23 10° WSW 19:31:46 46° S 19:42:09 22° SE visible
03 Mar 9.7 21:31:31 10° W 21:46:21 31° SSW 21:47:57 31° SSW visible
04 Mar 10.0 18:11:52 10° WSW 18:30:27 47° S 18:45:56 10° ESE visible
04 Mar 9.6 20:28:57 10° W 20:45:55 38° SSW 20:51:44 30° SSE visible
04 Mar 10.3 22:49:30 10° W 22:57:32 18° SW 22:57:32 18° SW visible
05 Mar 9.8 19:26:50 10° WSW 19:45:01 44° SSW 19:55:32 21° SE visible
05 Mar 10.0 21:45:40 10° W 21:59:11 26° SW 22:01:20 25° SSW visible
